Probability
0 0 0 0 0 0 0 0 0 0 0 0 0 0 0 1 2 2 1 0 0 0 0 0 1 2 4 3 2 0 0 1 2 3 2 1 1 2 1 1 1 1 1 0
0 0 0 0 0 0 0 0 0 0 0 0 0 0 0 1 2 2 1 0 0 0 0 0 1 2 3 4 3 1 1 2 2 2 2 1 1 1 1 0 1 1 1 1
0 0 0 0 0 0 0 0 0 0 0 0 0 0 0 0 1 1 1 0 0 0 0 0 0 1 3 4 3 3 3 2 1 1 1 0 0 0 0 0 0 1 1 0
0 0 0 0 0 0 0 0 0 0 0 0 0 0 0 0 0 0 0 0 1 1 0 0 0 1 2 3 4 4 3 1 0 0 0 0 0 0 0 0 0 0 0 0
0 0 0 0 0 0 0 0 0 0 0 0 0 0 0 0 0 0 0 1 2 1 0 0 0 1 2 3 3 3 1 0 0 0 0 0 0 0 0 0 0 0 0 0
0 0 0 0 0 0 0 0 0 0 0 0 0 0 0 0 0 0 1 2 2 1 0 0 0 0 1 3 3 2 1 0 0 0 0 0 0 0 0 0 0 0 0 0
0 0 0 0 0 0 0 0 0 0 0 0 0 0 0 0 0 0 1 1 1 0 0 0 0 0 1 2 3 2 1 0 0 0 0 0 0 0 0 0 0 0 0 0
0 0 0 0 0 0 0 0 0 0 0 0 0 0 0 0 0 0 0 0 0 0 0 0 0 0 1 2 3 2 0 0 0 0 0 0 0 0 0 0 0 0 0 0
0 0 0 0 0 0 0 0 0 0 0 0 0 0 0 0 0 0 0 0 0 0 0 0 0 0 1 2 3 2 0 0 0 0 0 0 0 0 0 0 0 0 0 0
0 0 0 0 0 0 0 0 0 0 0 0 0 0 0 0 0 0 0 0 0 0 0 0 0 0 1 2 2 1 0 0 0 0 0 0 0 0 0 0 0 0 0 0
0 0 0 0 0 0 0 0 0 0 0 0 0 0 0 0 0 0 0 0 0 0 0 0 0 0 0 1 1 1 0 0 0 0 0 0 0 0 0 0 0 0 0 0
0 0 0 0 0 0 0 0 0 0 0 0 0 0 0 0 0 0 0 0 0 0 0 0 0 0 1 2 2 2 1 0 0 0 0 0 0 0 0 0 0 0 0 0
0 0 0 0 0 0 0 0 0 0 0 0 0 0 0 0 0 0 0 0 0 0 0 0 0 0 1 2 2 2 1 0 0 0 0 0 0 0 0 0 0 0 0 0
0 0 0 0 0 0 0 0 0 0 0 0 0 0 0 0 0 0 0 0 0 0 0 0 0 0 0 1 1 1 0 0 0 0 0 0 0 0 0 0 0 0 0 0
0 0 0 0 0 0 0 0 0 0 0 0 0 0 0 0 0 0 0 0 0 0 0 0 0 0 0 0 0 0 0 0 0 0 0 0 0 0 0 0 0 0 0 0
0 0 0 0 0 0 0 0 0 0 0 0 0 0 0 0 0 0 0 0 0 0 0 0 0 0 0 0 0 0 0 0 0 0 0 0 0 0 0 0 0 0 0 0
0 0 0 0 0 0 0 0 0 0 0 0 0 0 0 0 0 0 0 0 0 0 0 0 0 0 0 0 0 0 0 0 0 0 0 0 0 0 0 0 0 0 0 0
0 0 0 0 0 0 0 0 0 0 0 0 0 0 0 0 0 0 0 0 0 0 0 0 0 0 0 0 0 0 0 0 0 0 0 0 0 0 0 0 0 0 0 0
0 0 0 0 0 0 0 0 0 0 0 0 0 0 0 0 0 0 0 0 0 0 0 0 0 0 0 0 0 0 0 0 0 0 0 0 0 0 0 0 0 0 0 0
0 0 0 0 0 0 0 0 0 0 0 0 0 0 0 0 0 0 0 0 0 0 0 0 0 0 0 0 0 0 0 0 0 0 0 0 0 0 0 0 0 0 0 0
0 0 0 0 0 0 0 0 0 0 0 0 0 0 0 0 0 0 0 0 0 0 0 0 0 0 0 0 0 0 0 0 0 0 0 0 0 0 0 0 0 0 0 0
0 0 0 0 0 0 0 0 0 0 0 0 0 0 0 0 0 0 0 0 0 0 0 0 0 0 0 0 0 0 0 0 0 0 0 0 0 0 0 0 0 0 0 0
0 0 0 0 0 0 0 0 0 0 0 0 0 0 0 0 0 0 0 0 0 0 0 0 0 0 0 0 0 0 0 0 0 0 0 0 0 0 0 0 0 0 0 0
0 0 0 0 0 0 0 0 0 0 0 0 0 0 0 0 0 0 0 0 0 0 0 0 0 0 0 0 0 0 0 0 0 0 0 0 0 0 0 0 0 0 0 0
0 0 0 0 0 0 0 0 0 0 0 0 0 0 0 0 0 0 0 0 0 0 0 0 0 0 0 0 0 0 0 0 0 0 0 0 0 0 0 0 0 0 0 0
0 0 0 0 0 0 0 0 0 0 0 0 0 0 0 0 0 0 0 0 0 0 0 0 0 0 0 0 0 0 0 0 0 0 0 0 0 0 0 0 0 0 0 0
0 0 0 0 0 0 0 0 0 0 0 0 0 0 0 0 0 0 0 0 0 0 0 0 0 0 0 0 0 0 0 0 0 0 0 0 0 0 0 0 0 0 0 0
Wind_Speed
9 9 8 8 9 8 9 9 9 8 7 4 1 0 2 3 4 4 3 3 3 2 1 1 0 1 1 1 0 1 1 1 1 2 1 1 2 2 2 1 1 1 1 1
10 10 9 11 11 9 10 10 10 10 8 3 2 1 1 1 2 2 2 2 3 2 2 1 1 0 1 1 0 0 1 1 1 2 2 2 2 2 2 2 1 1 1 1
8 8 9 10 7 7 7 6 7 7 5 3 3 2 0 1 1 1 1 2 2 2 2 1 1 1 1 1 0 0 1 1 1 2 2 2 2 2 2 2 2 1 1 1
7 8 9 3 0 1 2 4 4 4 3 3 2 2 1 2 1 1 1 1 2 2 1 1 1 1 1 1 1 0 0 1 1 1 2 2 2 1 1 2 2 1 1 1
5 7 8 4 1 2 3 4 3 3 3 2 3 1 0 2 1 1 1 1 1 1 1 1 1 1 1 1 0 0 1 1 1 1 2 2 2 2 2 2 2 2 1 1
6 6 6 1 3 2 3 3 2 2 3 2 2 3 1 2 2 2 2 1 1 1 1 1 0 0 0 0 0 0 0 1 1 2 2 2 2 2 2 2 2 2 2 1
8 8 5 2 2 1 2 1 3 3 3 3 3 2 2 3 2 1 1 1 1 0 1 1 1 1 1 0 0 1 0 0 0 1 1 1 2 2 2 2 2 2 2 2
6 7 4 2 1 1 2 3 4 4 4 4 3 3 3 2 2 1 1 0 0 0 1 1 1 1 1 0 0 1 0 0 0 1 1 1 1 2 2 2 1 1 1 2
2 2 0 1 1 2 4 4 5 4 4 3 3 2 2 2 1 1 0 0 0 1 1 1 1 1 1 0 0 0 0 1 1 1 0 0 0 1 2 2 1 1 1 1
4 4 3 2 2 3 3 4 4 5 5 4 3 2 2 2 2 1 1 0 0 1 1 1 1 1 1 0 0 1 1 1 1 1 1 0 0 0 1 1 1 1 1 1
6 5 4 3 2 3 3 3 4 4 4 4 3 3 3 2 2 1 1 0 1 1 1 1 1 1 1 1 1 1 2 2 1 1 1 1 0 0 0 1 1 1 1 1
5 4 4 3 3 4 4 4 4 4 4 3 3 3 3 2 1 1 1 1 1 1 1 1 1 1 1 1 1 1 1 1 0 0 1 1 1 0 1 1 1 2 1 1
5 4 4 4 3 4 4 4 4 4 3 3 3 2 2 1 0 1 1 1 1 2 1 1 1 1 1 1 1 1 1 1 0 0 0 1 1 1 0 1 2 2 1 1
4 3 4 4 4 4 4 4 4 3 3 2 2 2 1 1 1 1 1 1 1 1 1 1 1 1 1 1 0 1 1 1 1 1 1 1 1 1 1 1 1 1 1 2
4 4 4 4 3 3 3 3 3 3 3 2 2 1 1 1 1 2 1 1 1 1 2 1 1 1 1 1 0 1 1 0 0 0 1 1 1 1 1 1 1 1 0 1
4 3 3 3 3 3 3 3 3 3 2 2 2 2 2 2 2 2 1 0 1 2 2 2 2 1 1 1 1 1 1 2 1 1 1 1 1 1 1 1 1 1 1 0
4 4 3 3 4 3 3 3 3 3 2 2 2 2 2 1 1 1 1 2 2 2 2 2 2 2 1 1 1 1 1 1 2 1 1 1 1 1 1 1 1 1 1 1
3 4 4 3 3 3 3 2 2 3 2 2 2 1 1 1 2 2 2 1 1 1 1 1 1 1 1 1 1 1 1 1 1 1 1 1 1 1 1 1 1 1 1 1
3 3 3 3 2 2 2 2 2 2 2 1 1 1 2 2 2 2 1 1 2 2 2 1 1 1 1 2 1 1 1 1 1 1 1 1 1 1 1 1 1 1 1 1
3 3 2 2 2 2 2 1 1 1 2 1 1 1 1 2 2 1 1 1 1 1 1 1 1 1 1 2 2 1 1 1 1 1 1 1 1 1 1 1 1 1 1 1
2 2 2 2 2 2 2 1 1 1 1 1 1 2 2 2 1 0 1 1 1 1 1 1 0 1 1 0 1 1 1 1 1 1 1 1 1 1 1 1 1 1 1 1
1 1 1 1 2 2 2 1 0 1 1 1 1 1 1 1 0 0 1 1 1 1 1 0 0 1 1 1 1 1 1 1 1 1 1 1 1 1 1 2 2 2 2 2
1 1 1 1 2 2 1 1 1 1 1 2 1 1 1 1 1 1 1 1 0 1 0 0 1 1 1 1 0 1 1 1 1 1 1 1 1 1 1 2 2 2 2 2
1 1 1 1 1 1 1 1 1 0 1 1 1 1 1 0 0 0 0 1 1 1 0 1 1 1 0 0 1 1 1 1 1 1 1 1 1 1 1 1 1 2 2 2
1 1 1 1 1 1 1 1 1 1 1 1 1 1 0 0 0 0 0 0 0 0 0 1 1 1 1 1 1 1 1 1 1 1 1 1 1 1 1 1 2 2 2 2
1 1 0 1 1 0 1 1 1 1 1 1 1 0 0 1 1 0 0 0 0 1 0 1 1 1 1 1 1 1 1 1 1 1 0 1 1 1 1 2 3 2 2 2
1 1 0 0 0 0 0 1 1 1 1 0 1 1 0 0 0 0 0 0 0 0 0 1 1 1 1 1 1 1 1 1 1 1 1 1 1 1 1 2 2 2 2 2
Wind_Direction
284 291 291 284 278 265 254 257 265 277 291 297 322 100 131 131 134 142 155 151 149 156 156 157 173 175 121 115 50 0 54 19 336 330 329 337 343 342 348 345 348 348 337 319
278 276 275 276 270 261 260 264 267 274 284 317 332 25 72 107 138 151 157 166 159 171 175 179 179 123 115 109 93 21 40 26 348 328 340 343 338 343 349 346 339 325 330 349
277 281 280 268 266 256 253 265 276 275 288 328 317 327 38 88 116 181 181 170 170 176 182 190 192 185 169 169 184 103 43 11 5 348 345 338 330 342 338 342 332 342 330 3
276 279 263 271 327 308 281 279 284 291 313 325 340 31 69 83 58 163 161 150 159 163 178 177 177 174 178 180 155 125 70 2 4 352 343 339 331 325 336 330 315 320 306 323
265 269 272 264 278 324 296 290 308 312 335 7 15 359 108 72 47 28 74 107 137 163 150 133 159 213 187 176 163 130 57 6 348 349 342 344 341 335 335 314 313 317 306 320
259 264 269 0 48 11 295 257 25 0 343 349 334 301 307 42 29 29 45 49 71 119 115 127 172 241 225 203 234 277 28 357 4 350 339 343 340 338 328 312 306 308 311 311
250 257 265 9 28 345 276 18 25 2 347 334 317 330 3 6 359 36 46 39 56 114 131 134 178 248 267 226 298 330 3 5 25 330 330 353 344 334 328 326 325 322 323 332
241 244 246 45 16 322 1 8 357 358 356 351 350 16 22 13 8 39 58 62 89 80 107 146 174 221 263 234 46 18 14 279 280 290 312 348 349 333 332 317 306 312 344 348
257 248 218 315 312 9 11 353 352 346 349 342 331 350 350 347 343 316 267 235 164 173 186 187 192 211 243 199 121 332 258 241 255 253 247 280 319 324 328 324 337 331 344 343
269 264 281 300 10 15 355 338 343 343 341 334 323 318 308 292 285 274 261 292 272 198 209 216 201 214 207 162 232 256 252 253 245 243 229 209 180 340 359 345 345 340 332 337
267 270 280 272 313 320 326 326 329 327 326 319 306 292 283 275 264 258 260 227 264 244 225 235 227 201 171 164 217 258 258 259 256 216 209 168 141 324 202 271 248 293 303 300
266 296 300 315 342 337 326 318 311 310 311 307 298 291 290 287 278 266 252 242 238 258 255 249 263 249 190 178 210 249 267 272 263 206 181 168 167 22 24 260 312 297 283 291
290 315 317 323 325 319 307 302 301 300 300 302 310 309 305 307 288 265 260 237 223 234 241 253 278 287 270 213 212 244 260 277 259 234 212 215 213 198 243 339 344 325 283 279
310 310 298 301 302 306 304 301 298 299 306 311 330 331 316 325 341 293 283 272 255 234 245 243 252 272 301 302 252 254 242 265 282 238 229 233 228 227 212 216 259 294 290 268
287 290 290 304 309 315 315 312 305 303 312 334 344 335 330 322 295 284 293 299 262 239 239 244 255 268 286 302 272 269 268 234 236 244 252 254 247 250 244 248 255 275 320 312
287 290 293 297 296 299 303 299 298 302 319 334 330 323 313 294 284 289 304 241 228 232 225 224 241 253 237 238 240 250 248 250 264 241 242 246 238 236 228 233 254 256 259 259
266 270 269 276 285 291 293 296 308 313 306 307 305 302 297 285 273 266 267 255 245 240 221 220 239 251 242 231 241 247 251 242 262 261 233 234 244 241 224 212 243 259 257 263
264 272 273 277 280 282 285 294 306 304 297 291 302 290 266 252 252 251 252 261 259 260 256 249 262 265 229 223 233 233 238 224 231 238 234 238 254 252 232 217 237 271 284 278
263 278 284 290 298 304 313 304 298 306 307 288 274 262 249 242 243 242 242 249 244 246 264 278 265 227 224 228 237 224 233 226 221 237 231 229 244 254 250 227 229 255 263 259
263 282 292 298 304 303 307 313 310 307 305 297 288 279 273 274 271 255 223 232 241 269 276 267 228 224 222 228 238 220 216 209 205 215 216 212 224 232 238 243 242 243 250 250
259 269 275 283 291 293 283 271 228 252 289 289 278 273 268 275 289 282 231 258 295 328 312 269 233 247 230 211 192 214 211 215 207 202 206 220 227 235 249 260 258 250 251 260
276 285 288 292 293 290 286 275 244 265 274 275 281 289 279 261 263 272 255 256 276 322 2 278 283 332 2 79 165 213 229 232 223 213 210 217 227 240 252 262 264 260 252 256
273 273 279 281 288 297 307 294 249 261 278 278 272 284 291 281 233 213 277 311 281 283 326 220 302 329 30 65 244 240 245 248 238 229 219 218 232 246 257 263 269 276 270 261
285 270 269 278 283 289 300 311 315 307 308 311 304 291 272 263 272 305 359 336 335 328 247 242 258 268 82 310 280 269 259 250 243 241 238 229 233 244 260 269 275 279 273 273
282 277 283 292 290 292 304 323 331 333 300 297 313 328 346 36 327 330 345 193 257 3 266 240 236 246 215 255 264 276 276 269 272 273 258 264 251 249 254 262 264 265 260 259
297 308 323 321 341 348 309 293 275 273 279 285 307 338 28 45 26 9 18 35 181 281 286 227 229 228 233 255 263 270 277 280 273 270 294 295 283 280 271 268 267 260 253 254
314 325 336 347 340 299 278 269 267 265 262 262 303 318 10 53 66 4 347 350 235 273 262 239 228 235 259 278 282 281 283 289 278 253 245 257 276 278 274 280 274 269 264 256